Time,TemperatureF,DewpointF,PressureIn,WindDirection,WindDirectionDegrees,WindSpeedMPH,WindSpeedGustMPH,Humidity,HourlyPrecipIn,Conditions,Clouds,dailyrainin,SoftwareType,DateUTC
2013-05-30 00:12:00,39.0,-99.9,-100.00,North,-999,-999.0,-999.0,-999,0.02,,,0.15,,2013-05-30 06:12:00,
2013-05-30 00:22:00,39.0,-99.9,-100.00,North,-999,-999.0,-999.0,-999,0.02,,,0.15,,2013-05-30 06:22:00,
2013-05-30 00:32:00,39.0,-99.9,-100.00,North,-999,-999.0,-999.0,-999,0.02,,,0.15,,2013-05-30 06:32:00,
2013-05-30 00:42:00,39.0,-99.9,-100.00,North,-999,-999.0,-999.0,-999,0.02,,,0.15,,2013-05-30 06:42:00,
2013-05-30 01:12:00,38.0,-99.9,-100.00,North,-999,-999.0,-999.0,-999,0.01,,,0.16,,2013-05-30 07:12:00,
2013-05-30 01:22:00,38.0,-99.9,-100.00,North,-999,-999.0,-999.0,-999,0.01,,,0.16,,2013-05-30 07:22:00,
2013-05-30 01:32:00,38.0,-99.9,-100.00,North,-999,-999.0,-999.0,-999,0.01,,,0.16,,2013-05-30 07:32:00,
2013-05-30 01:42:00,38.0,-99.9,-100.00,North,-999,-999.0,-999.0,-999,0.01,,,0.16,,2013-05-30 07:42:00,
2013-05-30 02:11:00,38.0,-99.9,-100.00,North,-999,-999.0,-999.0,-999,0.00,,,-99.99,,2013-05-30 08:11:00,
2013-05-30 02:22:00,38.0,-99.9,-100.00,North,-999,-999.0,-999.0,-999,0.00,,,-99.99,,2013-05-30 08:22:00,
2013-05-30 02:32:00,38.0,-99.9,-100.00,North,-999,-999.0,-999.0,-999,0.00,,,-99.99,,2013-05-30 08:32:00,
2013-05-30 02:42:00,38.0,-99.9,-100.00,North,-999,-999.0,-999.0,-999,0.00,,,-99.99,,2013-05-30 08:42:00,
2013-05-30 04:13:00,37.0,-99.9,-100.00,North,-999,-999.0,-999.0,-999,-99.99,,,0.18,,2013-05-30 10:13:00,
2013-05-30 04:23:00,37.0,-99.9,-100.00,North,-999,-999.0,-999.0,-999,-99.99,,,0.18,,2013-05-30 10:23:00,
2013-05-30 04:33:00,37.0,-99.9,-100.00,North,-999,-999.0,-999.0,-999,-99.99,,,0.18,,2013-05-30 10:33:00,
2013-05-30 04:42:00,37.0,-99.9,-100.00,North,-999,-999.0,-999.0,-999,-99.99,,,0.18,,2013-05-30 10:42:00,
2013-05-30 05:12:00,37.0,-99.9,-100.00,North,-999,-999.0,-999.0,-999,0.01,,,0.19,,2013-05-30 11:12:00,
2013-05-30 05:22:00,37.0,-99.9,-100.00,North,-999,-999.0,-999.0,-999,0.01,,,0.19,,2013-05-30 11:22:00,
2013-05-30 05:32:00,37.0,-99.9,-100.00,North,-999,-999.0,-999.0,-999,0.01,,,0.19,,2013-05-30 11:32:00,
2013-05-30 05:42:00,37.0,-99.9,-100.00,North,-999,-999.0,-999.0,-999,0.01,,,0.19,,2013-05-30 11:42:00,
2013-05-30 06:11:00,36.0,-99.9,-100.00,North,-999,-999.0,-999.0,-999,0.03,,,0.22,,2013-05-30 12:11:00,
2013-05-30 06:22:00,36.0,-99.9,-100.00,North,-999,-999.0,-999.0,-999,0.03,,,0.22,,2013-05-30 12:22:00,
2013-05-30 06:32:00,36.0,-99.9,-100.00,North,-999,-999.0,-999.0,-999,0.03,,,0.22,,2013-05-30 12:32:00,
2013-05-30 06:42:00,36.0,-99.9,-100.00,North,-999,-999.0,-999.0,-999,0.03,,,0.22,,2013-05-30 12:42:00,
2013-05-30 07:11:00,37.0,-99.9,-100.00,North,-999,-999.0,-999.0,-999,0.02,,,0.24,,2013-05-30 13:11:00,
2013-05-30 07:22:00,37.0,-99.9,-100.00,North,-999,-999.0,-999.0,-999,0.02,,,0.24,,2013-05-30 13:22:00,
2013-05-30 07:32:00,37.0,-99.9,-100.00,North,-999,-999.0,-999.0,-999,0.02,,,0.24,,2013-05-30 13:32:00,
2013-05-30 07:42:00,37.0,-99.9,-100.00,North,-999,-999.0,-999.0,-999,0.02,,,0.24,,2013-05-30 13:42:00,
2013-05-30 08:12:00,38.0,-99.9,-100.00,North,-999,-999.0,-999.0,-999,0.04,,,0.28,,2013-05-30 14:12:00,
2013-05-30 08:22:00,38.0,-99.9,-100.00,North,-999,-999.0,-999.0,-999,0.04,,,0.28,,2013-05-30 14:22:00,
2013-05-30 08:32:00,38.0,-99.9,-100.00,North,-999,-999.0,-999.0,-999,0.04,,,0.28,,2013-05-30 14:32:00,
2013-05-30 08:42:00,38.0,-99.9,-100.00,North,-999,-999.0,-999.0,-999,0.04,,,0.28,,2013-05-30 14:42:00,